Theta_e
337 340 342 342 341 341 341 341 342 341 338 345 351 353 354 355 354 354 352 349 350 351 350 350 351 351 351 351 351 351 351 351 354 355 355 355 354 352 353 348 346 345 345 345
338 340 340 340 339 340 340 341 342 340 340 345 346 350 352 355 356 354 354 352 348 350 351 353 353 353 353 353 354 355 355 355 355 354 355 353 354 353 353 353 352 348 348 348
339 338 339 339 339 340 341 341 339 339 339 345 347 350 355 354 356 354 353 352 350 351 351 354 354 353 353 354 355 356 356 356 355 354 354 354 355 356 354 355 353 352 351 353
336 337 338 339 340 340 340 339 336 338 340 343 343 344 350 355 357 357 355 353 352 353 353 353 352 352 351 352 354 355 356 355 354 354 354 355 355 356 355 355 356 357 354 352
331 334 336 339 339 338 339 335 336 337 341 342 345 342 347 350 354 358 357 354 353 353 354 352 352 350 352 351 354 354 355 354 354 354 355 354 352 355 356 357 358 359 358 357
328 331 334 336 337 336 335 334 336 338 342 344 342 340 339 342 356 354 355 355 354 353 356 354 351 352 353 354 353 355 354 352 354 353 345 342 351 353 356 357 357 356 354 354
326 329 330 330 333 333 332 335 341 344 345 343 341 340 339 346 349 351 351 355 354 355 357 356 352 351 352 351 354 353 353 350 348 346 347 345 348 345 351 349 350 351 349 349
327 326 330 330 330 330 331 334 338 343 345 345 342 340 344 350 353 353 353 349 354 356 356 354 351 350 349 350 349 347 349 350 347 344 345 341 342 344 345 343 343 343 343 342
325 326 328 328 330 331 332 335 335 337 340 341 340 342 340 349 353 356 355 354 356 356 355 352 349 349 350 350 351 350 350 348 347 348 347 345 345 342 341 341 339 338 336 335
326 327 327 327 328 329 331 332 334 337 342 344 341 342 341 354 355 357 357 358 357 356 355 353 351 351 350 351 352 350 348 348 345 344 342 340 338 337 336 335 333 332 331 330
325 325 327 327 328 328 330 332 335 337 339 343 343 344 341 349 352 356 358 357 357 356 354 353 353 351 349 348 348 346 345 343 340 338 337 335 334 332 331 330 329 328 328 328
324 325 326 326 327 328 329 331 334 338 343 340 340 341 347 349 350 355 358 359 356 354 352 352 349 347 347 347 346 344 342 340 337 335 333 332 331 330 329 327 327 326 326 327
324 323 325 325 326 327 327 329 331 332 335 340 342 340 352 353 352 357 358 358 358 357 353 350 349 348 346 345 343 342 339 337 335 332 331 329 328 326 326 326 326 326 326 325
324 323 324 326 326 326 326 327 329 331 332 334 335 336 352 356 357 356 358 360 355 355 354 353 351 347 345 344 342 340 337 334 332 330 329 327 326 326 325 325 325 324 323 323
323 323 324 324 325 325 326 327 329 331 332 334 334 336 337 351 357 357 358 357 355 356 354 352 350 347 344 342 339 336 333 332 330 328 327 327 326 325 324 323 322 321 321 321
326 325 325 325 324 325 324 326 329 331 331 334 336 336 338 349 356 358 359 357 356 356 354 352 349 346 344 341 338 334 332 330 328 326 326 326 325 323 321 321 320 319 318 316
330 326 329 326 326 326 326 326 327 329 331 333 338 338 348 351 358 359 358 356 355 356 354 352 350 346 342 339 335 333 330 327 325 325 325 324 322 321 321 319 316 316 316 315
336 335 334 329 330 331 328 328 328 330 330 335 338 346 350 351 355 355 354 353 355 355 353 351 347 343 338 335 332 329 327 325 324 324 323 322 320 320 320 317 316 315 315 315
335 336 336 335 332 328 333 333 331 331 334 338 340 345 349 351 352 353 351 351 353 353 350 347 343 339 335 332 330 327 325 324 323 323 320 319 319 320 319 317 317 317 316 316
331 334 338 338 336 333 331 331 332 334 337 335 340 348 351 352 357 355 350 351 352 349 346 344 339 336 333 330 328 326 325 323 322 321 320 319 318 318 317 318 318 318 318 317
333 335 337 336 337 333 337 337 339 341 334 338 342 348 351 354 347 350 348 349 349 346 344 340 337 335 332 329 327 325 323 323 321 321 321 319 318 318 319 319 319 318 318 318
338 337 335 336 337 338 339 340 339 333 333 336 344 348 351 350 351 349 350 353 349 346 341 338 336 333 329 327 324 323 322 322 321 321 320 320 320 317 317 319 319 319 319 318
337 334 335 336 334 346 341 339 340 343 345 345 346 348 349 351 351 352 353 351 347 343 339 337 334 330 327 324 323 322 322 320 319 319 319 319 319 318 317 318 318 317 316 316
340 342 338 342 333 334 338 339 342 342 345 350 347 348 350 351 351 352 349 347 344 340 337 334 331 329 326 323 322 322 321 320 319 319 319 318 318 316 317 316 316 316 316 316
342 347 343 344 345 344 343 342 342 342 345 348 347 349 349 349 349 348 346 345 341 338 334 332 330 328 324 322 321 320 320 319 319 318 317 317 315 316 316 316 315 315 315 313
343 343 346 340 348 347 346 344 343 342 348 349 348 348 346 347 347 345 344 341 338 335 332 331 329 326 323 321 320 320 320 320 318 316 316 315 315 316 316 316 317 315 313 313
Wind_Speed
13 11 12 10 2 4 1 3 4 4 4 5 9 11 12 17 16 16 15 15 15 14 14 14 14 12 11 12 12 13 12 11 11 8 7 7 7 9 9 11 11 12 11 12
9 16 15 4 5 5 4 4 2 4 3 5 4 7 10 19 19 18 17 16 14 15 13 12 11 11 13 13 11 10 8 7 9 8 5 4 3 3 5 7 9 9 11 15
20 17 9 11 10 10 9 7 4 7 8 6 7 10 10 13 16 17 16 16 15 13 11 8 9 9 10 11 11 11 10 10 8 8 6 4 2 2 3 4 6 8 8 10
19 8 12 16 14 12 15 6 4 8 11 7 3 5 8 11 16 17 17 16 16 15 11 10 10 8 2 4 8 10 13 14 14 13 10 6 4 2 2 5 6 6 5 4
16 15 17 17 16 11 14 5 6 7 11 12 10 7 7 7 9 13 17 18 18 15 13 13 9 10 7 6 11 16 14 14 13 12 11 12 8 7 3 5 5 1 1 2
10 2 14 20 19 12 11 8 9 8 7 12 4 3 6 3 7 5 9 18 17 15 13 10 14 11 12 11 13 13 21 21 10 12 14 9 5 10 8 7 7 5 5 4
13 12 8 8 14 11 15 15 12 12 9 10 5 4 5 7 5 3 5 13 16 15 13 13 13 13 12 13 14 13 12 15 16 13 5 2 4 11 11 8 6 6 7 5
14 15 15 13 14 16 19 20 15 14 10 9 3 6 3 8 6 4 5 8 13 15 13 13 11 12 11 13 14 13 11 11 7 9 9 8 8 10 11 12 5 4 5 7
12 17 6 8 14 13 12 13 20 20 6 8 8 5 9 9 6 6 7 9 12 12 12 12 12 10 10 13 12 8 8 10 10 10 11 11 10 11 12 12 5 3 5 7
8 9 9 14 11 15 13 11 13 12 14 13 9 6 9 8 9 9 11 11 11 12 12 11 9 11 10 9 8 10 12 15 14 12 11 10 10 11 11 8 5 5 4 6
11 11 11 9 14 16 13 13 11 11 14 14 12 11 7 5 9 13 13 12 13 12 12 12 11 11 11 11 14 15 15 16 15 13 12 10 10 10 9 7 6 5 6 8
18 11 13 16 11 4 11 19 20 11 14 12 14 8 4 7 10 13 14 14 13 12 11 11 13 15 14 14 15 16 14 13 12 11 11 9 10 9 8 7 7 7 7 8
16 11 11 14 14 10 11 13 11 14 15 12 10 13 5 7 12 13 15 15 13 14 14 13 13 14 14 16 15 15 13 12 11 9 9 8 9 9 8 7 7 7 7 8
7 15 15 13 15 18 21 19 16 19 14 15 15 17 9 12 14 16 16 16 15 14 15 14 13 16 17 18 17 15 14 11 10 9 9 10 10 8 7 6 7 7 7 7
12 16 12 16 10 9 13 19 20 18 17 19 16 14 16 16 17 17 17 17 16 16 17 16 16 15 19 18 17 14 13 10 9 9 10 11 9 9 8 8 9 10 10 10
13 11 12 15 18 16 15 18 16 18 16 15 15 16 10 9 15 19 20 19 17 17 17 17 17 18 19 19 17 15 12 10 9 10 11 10 10 10 11 11 10 9 9 11
5 11 9 15 18 14 18 19 19 17 16 15 16 16 9 13 18 20 20 19 18 18 18 18 17 18 18 18 16 13 11 10 11 11 10 9 9 10 9 9 10 10 10 9
7 7 7 11 9 17 14 16 20 20 16 15 15 4 10 13 15 18 18 18 18 19 18 17 18 18 19 18 15 13 11 11 11 10 9 8 8 8 8 9 9 9 8 8
14 9 7 7 12 15 7 9 13 14 14 16 15 6 9 14 17 16 17 18 19 19 17 20 20 20 20 17 15 14 12 11 11 10 9 8 8 8 8 9 7 5 5 5
13 13 10 7 12 13 13 17 16 14 14 9 11 13 17 20 15 13 19 18 20 22 22 22 22 21 19 16 15 14 12 11 10 10 9 8 8 8 8 6 4 3 3 4
8 8 14 12 10 8 5 5 12 11 8 13 15 17 20 20 5 20 22 19 23 24 25 25 24 21 19 16 13 12 11 9 9 9 8 8 8 7 5 4 2 3 4 5
10 8 8 7 7 13 5 9 13 8 8 8 13 17 21 14 16 25 22 21 21 22 26 25 22 20 18 15 13 12 11 11 10 12 10 9 7 3 4 2 2 4 5 4
10 9 9 7 4 4 5 12 10 9 9 8 15 19 21 17 23 24 21 21 19 26 25 23 22 21 16 14 12 13 13 12 13 12 10 8 5 2 1 1 2 4 2 5
8 3 6 4 14 18 13 12 15 6 10 5 12 19 19 22 24 24 20 20 19 24 24 23 22 20 17 14 12 13 14 14 12 10 8 6 3 1 1 2 1 2 4 6
5 6 7 10 16 14 16 7 10 10 7 8 15 19 19 21 23 23 20 21 21 25 24 22 19 18 17 15 14 15 14 13 11 8 8 5 4 3 3 1 2 4 5 8
7 8 8 8 6 6 7 9 12 9 9 13 18 22 19 21 22 20 18 22 25 24 24 21 18 17 17 16 15 14 13 11 10 9 9 6 5 3 0 2 3 4 6 9
Wind_Direction
203 222 219 221 23 16 275 280 314 14 44 278 239 242 187 186 195 191 194 193 186 194 178 178 188 195 201 204 205 207 209 201 197 200 203 215 221 218 236 229 230 256 270 273
185 224 226 149 202 240 235 275 284 249 353 257 274 253 203 184 204 198 193 197 196 191 179 177 189 210 202 204 207 202 201 188 187 189 187 194 211 221 251 254 239 260 266 263
223 219 168 195 208 233 228 266 347 332 312 223 279 227 170 200 203 205 203 198 198 197 179 187 194 204 214 201 195 182 164 160 165 164 164 175 195 241 268 278 292 295 268 265
231 174 197 212 221 234 254 160 287 302 303 330 321 305 149 176 202 206 205 199 194 192 193 182 174 133 140 164 171 160 156 157 161 163 164 170 165 208 305 320 314 324 316 303
210 209 208 218 226 212 265 132 265 296 289 306 194 266 121 156 205 204 207 200 199 182 199 192 141 129 127 137 137 150 142 151 162 163 157 150 143 118 80 352 332 16 343 329
253 217 224 231 235 227 250 209 233 245 285 263 168 279 299 70 87 120 200 204 200 181 193 159 148 132 114 115 138 149 148 147 158 150 148 148 176 103 89 26 349 358 349 347
201 197 187 225 217 201 221 237 237 228 206 248 113 236 306 91 98 136 159 191 195 182 181 162 147 137 133 131 130 143 147 141 161 160 154 132 119 100 97 82 21 4 2 346
199 205 200 190 224 206 215 229 237 241 240 272 127 248 112 93 103 126 182 200 179 177 175 170 161 141 140 138 127 131 148 150 133 118 118 152 156 102 99 93 70 21 358 343
205 232 167 220 213 230 213 238 243 260 174 265 267 170 239 174 144 134 127 155 161 173 172 173 156 147 141 134 129 115 133 115 107 111 115 115 93 98 92 78 66 22 4 346
188 227 185 190 219 223 263 260 208 231 248 227 226 231 271 166 169 153 149 154 160 155 163 165 156 140 139 140 138 125 115 120 119 111 100 90 95 87 80 84 77 42 8 354
231 239 162 185 202 199 201 226 236 259 222 248 240 218 143 150 182 169 155 153 154 159 159 149 141 133 137 132 135 130 126 121 114 110 105 101 93 88 89 79 62 44 20 8
215 213 231 205 206 343 231 214 221 225 209 247 283 286 102 142 167 159 155 152 151 150 150 140 134 132 131 134 129 132 129 121 110 103 97 91 88 85 77 69 52 39 23 11
194 221 219 219 216 209 239 235 247 249 248 244 233 242 137 155 157 159 157 151 141 148 141 136 135 129 129 128 136 133 131 121 112 103 98 93 80 71 62 52 43 34 22 12
215 232 226 223 222 211 212 227 224 241 234 236 238 258 176 181 172 171 166 153 153 153 149 139 135 130 136 132 135 134 126 119 113 108 102 94 82 76 68 61 53 44 37 33
230 229 228 238 263 226 245 215 217 232 243 252 248 238 245 186 181 179 164 155 157 152 149 152 138 134 137 135 134 132 128 127 123 117 105 95 88 81 78 73 69 68 66 62
225 241 242 231 230 231 235 238 221 219 238 247 256 263 296 142 161 173 167 163 163 159 154 148 141 145 143 144 142 138 133 123 115 101 93 94 88 81 85 81 74 71 68 61
215 231 214 231 227 227 235 234 226 228 222 232 234 236 156 174 174 175 167 168 164 160 156 152 150 150 149 143 137 132 123 113 94 89 89 89 92 100 98 95 89 80 78 76
259 230 238 247 195 229 242 220 219 226 232 230 242 158 193 184 169 170 171 164 161 159 155 153 154 149 146 142 133 129 116 110 110 110 109 112 118 120 112 110 100 93 85 71
222 249 240 236 223 239 192 196 210 225 223 221 228 168 179 153 158 168 167 164 160 157 154 154 152 151 144 139 138 132 128 126 122 119 116 115 122 128 122 110 95 87 70 56
228 224 264 220 267 239 243 207 212 212 233 219 208 180 164 157 180 171 167 160 155 153 154 151 149 146 144 146 142 135 133 128 124 124 116 108 116 127 119 109 94 53 12 26
177 212 224 228 251 258 61 134 161 199 215 182 196 177 171 184 244 148 160 159 152 153 151 149 152 151 148 146 140 130 131 136 129 129 129 130 133 129 115 97 46 7 351 349
198 205 195 223 250 255 133 175 207 216 245 242 195 180 176 177 128 144 152 151 149 148 148 154 151 146 145 140 138 143 149 145 149 149 142 137 134 124 102 68 17 329 335 342
247 255 290 305 277 36 223 234 248 353 302 243 194 173 175 152 146 143 148 149 149 149 153 154 149 143 143 144 152 155 148 153 150 149 141 134 122 119 38 324 317 290 321 345
170 176 249 269 259 260 259 262 258 305 305 274 180 169 159 154 149 146 146 146 149 152 153 153 150 148 145 151 155 150 154 154 155 148 143 138 146 116 262 246 239 324 343 346
334 155 230 245 262 273 267 290 304 271 271 176 165 154 154 149 146 149 148 148 150 151 151 152 152 150 150 154 154 153 154 157 153 149 144 144 136 133 141 158 353 324 309 315
222 238 227 266 39 319 325 347 333 256 211 174 159 151 149 150 145 147 145 147 148 150 148 151 153 153 151 153 154 157 162 165 157 154 153 139 140 157 145 317 314 252 307 317